Location: Unspecified
(41.5000°N, 0.0000°E)
Time: 14:00:05
(UTC+00:00)

deb Explorer IX - Pass Details

Date: 28 June 2019
Orbit: 540 x 1110 km, 38.8° (Epoch: 24 August)

Event Time Altitude Azimuth Distance (km) Brightness Sun altitude
Rises 16:26:19 0° 279° (W) 3,880 ? 33.0°
Reaches altitude 10° 16:29:17 10° 271° (W) 2,954 ? 32.4°
Maximum altitude 16:35:44 34° 209° (SSW) 1,720 ? 31.2°
Drops below altitude 10° 16:42:06 10° 148° (SSE) 2,899 ? 30.0°
Sets 16:45:00 0° 139° (SE) 3,799 ? 29.5°
